Hourly Data Report for November 25, 2000

SHERBROOKE A
QUEBEC

45°26'00.000" N
71°41'00.000" W
241.40 m
7028124
71610
YSC

Download Data

Hourly Data (November 2000)
Hourly Data Report for November 25, 2000
TIME
LST
Temp Definition
°C
Dew Point Definition
°C
Rel Hum Definition
%
Precip. Amount Definition
mm

Wind Dir Definition
10's deg

Wind Spd Definition
km/h
Visibility Definition
km
Stn Press Definition
kPa
Hmdx Definition


Wind Chill Definition


Weather Definition


00:00 -17.6 -18.6 92   8 4 15.0 99.91   -21  
01:00 -18.4 -19.4 92   11 4 15.0 99.94   -22  
02:00 -17.9 -18.8 93   6 4 15.0 100.01   -21  
03:00 -16.7 -17.6 93     0 15.0 100.08      
04:00 -15.5 -16.4 93   8 6 15.0 100.04   -20  
05:00 -13.9 -15.1 91   6 6 15.0 100.08   -18  
06:00 -12.8 -14.0 91   6 6 15.0 100.01   -17  
07:00 -11.8 -13.2 89   6 6 15.0 99.94   -16  
08:00 -10.2 -11.9 87     0 24.1 99.94     Cloudy
09:00 -8.5 -10.4 86   5 4 24.1 99.88   -11 Mostly Cloudy
10:00 -6.3 -10.1 74     0 24.1 99.88     Cloudy
11:00 -4.7 -8.8 73     0 24.1 99.84     Mostly Cloudy
12:00 -3.4 -8.2 69     0 24.1 99.78     Mostly Cloudy
13:00 -2.1 -7.6 66     0 24.1 99.74     Mostly Cloudy
14:00 -0.2 -9.0 51   19 9 24.1 99.74   -3 Mostly Cloudy
15:00 -0.1 -9.6 49   20 13 24.1 99.71   -4 Mainly Clear
16:00 -1.3 -10.0 52   19 9 24.1 99.68   -5 Mainly Clear
17:00 -4.1 -9.5 66   13 9 24.1 99.65   -8 Mainly Clear
18:00 -6.2 -9.2 79   13 6 15.0 99.61   -9  
19:00 -7.2 -9.2 86   10 4 15.0 99.61   -9  
20:00 -7.9 -10.3 83   9 4 15.0 99.61   -10  
21:00 -8.1 -10.3 84   8 6 15.0 99.51   -11  
22:00 -9.2 -10.7 89   10 4 15.0 99.55   -11  
23:00 -10.2 -11.0 94   7 4 15.0 99.55   -13  

Notes on Data Quality.

Legend

  • E = Estimated
  • M = Missing
  • NA = Not Available*
  • [empty] = Indicates an unobserved value
Date modified: